VOE2UP LDDU-LFQQ

Flight info

Callsign VOE2UP
Flight time N/A
Altitude 38000
Route AMUGO1V/29 AMUGO DCT SIRMI DCT GORPA DCT SIMBA DCT MAMOR DCT PETIX DCT BOMBI DCT ADKUV DCT SOGRI UM617 CIV
Aircraft A319/M-SDE3FGHIRWY/LB1

Departure

Time 2026-04-27 17:25
Airport Dubrovnik Ruđer Bošković Airport (LDDU)

Arrival

Time N/A
Airport Lille Airport (LFQQ)
Time Latitude Longitude Altitude Speed Heading
2026-04-27 16:57 42.56020 18.26463 534 ft 0 kts 208°
2026-04-27 17:07 42.56021 18.26463 534 ft 0 kts 208°
2026-04-27 17:17 42.56041 18.26477 534 ft 4 kts 203°
2026-04-27 17:17 42.56066 18.26488 534 ft 4 kts 180°
2026-04-27 17:17 42.56086 18.26480 534 ft 1 kts 119°
2026-04-27 17:18 42.56086 18.26479 534 ft 2 kts 119°
2026-04-27 17:18 42.56087 18.26479 534 ft 0 kts 119°
2026-04-27 17:20 42.56086 18.26480 534 ft 0 kts 119°
2026-04-27 17:21 42.56072 18.26515 534 ft 9 kts 118°
2026-04-27 17:21 42.56041 18.26592 534 ft 11 kts 118°
2026-04-27 17:21 42.55998 18.26702 534 ft 15 kts 118°
2026-04-27 17:21 42.55946 18.26832 534 ft 17 kts 118°
2026-04-27 17:22 42.55889 18.26975 534 ft 17 kts 118°
2026-04-27 17:22 42.55832 18.27121 534 ft 18 kts 118°
2026-04-27 17:22 42.55774 18.27269 534 ft 18 kts 118°
2026-04-27 17:22 42.55713 18.27421 534 ft 18 kts 118°
2026-04-27 17:23 42.55652 18.27575 534 ft 19 kts 118°
2026-04-27 17:23 42.55589 18.27732 534 ft 19 kts 118°
2026-04-27 17:23 42.55527 18.27888 534 ft 19 kts 118°
2026-04-27 17:23 42.55467 18.28049 534 ft 19 kts 107°
2026-04-27 17:24 42.55542 18.28173 533 ft 19 kts 26°
2026-04-27 17:24 42.55624 18.28121 533 ft 10 kts 297°
2026-04-27 17:24 42.55667 18.28012 532 ft 25 kts 298°
2026-04-27 17:24 42.55880 18.27474 532 ft 101 kts 298°
2026-04-27 17:25 42.56315 18.26375 575 ft 155 kts 298°
2026-04-27 17:25 42.56833 18.25104 1231 ft 155 kts 298°
2026-04-27 17:25 42.57348 18.23803 1949 ft 156 kts 299°
2026-04-27 17:25 42.57870 18.22471 2510 ft 168 kts 299°
2026-04-27 17:26 42.58459 18.20987 2891 ft 189 kts 299°
2026-04-27 17:26 42.59118 18.19321 3195 ft 215 kts 298°
2026-04-27 17:26 42.59861 18.17423 3684 ft 238 kts 298°
2026-04-27 17:26 42.60682 18.15332 4250 ft 259 kts 299°
2026-04-27 17:27 42.61544 18.13173 5127 ft 267 kts 300°
2026-04-27 17:27 42.62441 18.10931 6046 ft 272 kts 300°
2026-04-27 17:27 42.63353 18.08634 6967 ft 278 kts 299°
2026-04-27 17:27 42.64370 18.06414 7781 ft 283 kts 313°
2026-04-27 17:28 42.65845 18.04607 8713 ft 285 kts 321°
2026-04-27 17:28 42.67373 18.02863 9653 ft 289 kts 321°
2026-04-27 17:28 42.70611 17.99183 10719 ft 324 kts 321°
2026-04-27 17:29 42.72353 17.97216 11365 ft 333 kts 321°
2026-04-27 17:29 42.74149 17.95188 12217 ft 336 kts 321°
2026-04-27 17:29 42.75959 17.93141 13090 ft 338 kts 320°
2026-04-27 17:29 42.77775 17.91077 13951 ft 341 kts 320°
2026-04-27 17:30 42.79603 17.88996 14684 ft 344 kts 320°
2026-04-27 17:30 42.83297 17.84800 16124 ft 350 kts 320°
2026-04-27 17:30 42.85180 17.82659 16855 ft 354 kts 320°
2026-04-27 17:31 42.87058 17.80522 17560 ft 357 kts 320°
2026-04-27 17:31 42.88977 17.78335 18275 ft 360 kts 320°
2026-04-27 17:31 42.90907 17.76133 18904 ft 363 kts 320°
2026-04-27 17:31 42.92855 17.73909 19519 ft 366 kts 320°
2026-04-27 17:32 42.94819 17.71664 20139 ft 369 kts 320°
2026-04-27 17:32 42.98791 17.67109 21358 ft 375 kts 320°
2026-04-27 17:32 43.00798 17.64804 21978 ft 378 kts 320°
2026-04-27 17:33 43.02798 17.62509 22574 ft 382 kts 321°
2026-04-27 17:33 43.04848 17.60151 23179 ft 385 kts 321°
2026-04-27 17:33 43.06903 17.57789 23743 ft 388 kts 321°
2026-04-27 17:33 43.08978 17.55405 24231 ft 390 kts 321°
2026-04-27 17:34 43.11042 17.53031 24707 ft 393 kts 321°
2026-04-27 17:34 43.13141 17.50609 25193 ft 395 kts 321°
2026-04-27 17:34 43.15249 17.48169 25667 ft 397 kts 321°
2026-04-27 17:34 43.17368 17.45715 26143 ft 400 kts 321°
2026-04-27 17:35 43.19506 17.43244 26604 ft 402 kts 321°
2026-04-27 17:35 43.21626 17.40792 27051 ft 404 kts 321°
2026-04-27 17:35 43.23788 17.38290 27526 ft 406 kts 321°
2026-04-27 17:35 43.25957 17.35780 27973 ft 409 kts 321°
2026-04-27 17:36 43.28115 17.33277 28435 ft 411 kts 321°
2026-04-27 17:36 43.30316 17.30720 28880 ft 414 kts 321°
2026-04-27 17:36 43.32521 17.28155 29314 ft 416 kts 321°
2026-04-27 17:36 43.33984 17.26452 29594 ft 417 kts 321°
2026-04-27 17:37 43.36937 17.23012 30133 ft 421 kts 321°
2026-04-27 17:37 43.39176 17.20397 30482 ft 423 kts 321°
2026-04-27 17:37 43.41430 17.17763 30819 ft 425 kts 320°
2026-04-27 17:37 43.43690 17.15119 31162 ft 427 kts 320°
2026-04-27 17:38 43.45193 17.13360 31394 ft 428 kts 320°
2026-04-27 17:38 43.47471 17.10693 31720 ft 430 kts 320°